This demonstration page uses our WeatherBlox Daily Observations layout. Learn more.

Left ArrowRight Arrow

39.08367, -84.50855

Hourly Observations for June 19, 2021

Temp ( °F °C ) Dew Point ( °F °C ) Humidity (%) Winds ( mph kmh ) Pressure ( in mb ) Visibility ( mi km ) Precip ( " mm )
12:16 am 00:16 Partly Cloudy 67 19.4 65 18.3 93 93 S 8 13 29.94 1014 10 16 0.01 0.25
12:50 am 00:50 Mostly Clear with Nearby Thunderstorms 66 19 64 18 94 94 SSW 9 15 29.95 1014 10 16 0.01 0.25
12:53 am 00:53 Mostly Clear with Nearby Thunderstorms 67 19.4 65 18.3 93 93 SSW 10 17 29.95 1014 10 16 0.01 0.25
1:05 am 01:05 Mostly Cloudy 68 20 65 18.3 90 90 SSW 10 17 29.97 1015 10 16 N/A
1:53 am 01:53 Mostly Clear 68 20 65 18.3 90 90 SSW 13 20 29.96 1014 10 16 N/A
2:53 am 02:53 Clear 68 20 65 18.3 90 90 S 16 26 29.92 1013 9 14 N/A
3:53 am 03:53 Partly Cloudy 68 20 65 18.3 90 90 N 13 20 29.93 1014 10 16 N/A
4:12 am 04:12 Mostly Cloudy 68 20 65 18.3 90 90 SSW 5 7 29.97 1015 9 14 N/A
4:23 am 04:23 Mostly Cloudy 67 19.4 65 18.3 93 93 N N/A 29.99 1016 8 13 N/A
4:41 am 04:41 Mostly Cloudy with Nearby Thunderstorms 67 19.4 65 18.3 93 93 N N/A 29.99 1016 3 5 N/A
4:53 am 04:53 Cloudy with Nearby Thunderstorms 67 19.4 65 18.3 93 93 N N/A 29.98 1015 4 6 N/A
5:09 am 05:09 Cloudy with Thunderstorms 67 19.4 66 18.9 97 97 N N/A 29.99 1016 4 6 N/A
5:24 am 05:24 Cloudy with Nearby Thunderstorms 68 20 66 18.9 93 93 S 6 9 29.99 1016 4 6 N/A
5:35 am 05:35 Cloudy with Mist and Fog 68 20 66 18.9 93 93 S 3 6 29.99 1016 5 8 N/A
5:53 am 05:53 Mostly Cloudy 68 20 65 18.3 90 90 ENE 6 9 29.95 1014 9 14 N/A
6:53 am 06:53 Mostly Cloudy with Light Rain 67 19.4 65 18.3 93 93 WSW 7 11 29.98 1015 6 10 0.03 0.76
7:16 am 07:16 Cloudy with Nearby Thunderstorms 67 19.4 65 18.3 93 93 N N/A 30.00 1016 5 8 0.05 1.27
7:26 am 07:26 Cloudy with Thunderstorms 67 19.4 65 18.3 93 93 W 5 7 30.01 1016 4 6 0.06 1.52
7:42 am 07:42 Cloudy with Heavy Thunderstorms 68 20 66 18.9 93 93 N N/A 30.00 1016 3 4 0.14 3.56
7:53 am 07:53 Cloudy with Nearby Thunderstorms 67 19.4 66 18.9 97 97 N N/A 30.00 1016 3 4 0.22 5.59
8:03 am 08:03 Cloudy with Nearby Thunderstorms 67 19.4 65 18.3 93 93 VRB 3 6 30.02 1017 2 2 0.12 3.05
8:21 am 08:21 Cloudy with Heavy Thunderstorms 67 19.4 65 18.3 93 93 W 10 17 30.05 1018 2 2 0.46 11.68
8:26 am 08:26 Cloudy with Heavy Thunderstorms 67 19.4 65 18.3 93 93 WSW 9 15 30.04 1017 1 1 0.67 17.02
8:41 am 08:41 Cloudy with Heavy Thunderstorms 66 18.9 65 18.3 96 96 SSE 5 7 30.03 1017 1 2 0.94 23.88
8:49 am 08:49 Cloudy with Heavy Thunderstorms 66 19 64 18 94 94 N N/A 30.03 1017 2 3 1.00 25.40
8:53 am 08:53 Cloudy with Heavy Thunderstorms 66 18.9 63 17.2 90 90 N N/A 30.03 1017 2 2 1.04 26.42
9:08 am 09:08 Cloudy with Nearby Thunderstorms 65 18.3 64 17.8 97 97 SSW 5 7 30.03 1017 2 2 0.08 2.03
9:19 am 09:19 Cloudy with Nearby Thunderstorms 65 18.3 64 17.8 97 97 N N/A 30.03 1017 2 3 0.12 3.05
9:33 am 09:33 Cloudy with Rain 66 18.9 64 17.8 93 93 S 5 7 30.03 1017 3 4 0.17 4.32
9:43 am 09:43 Cloudy with Heavy Rain 65 18.3 64 17.8 97 97 SE 12 19 29.96 1015 3 5 0.22 5.59
9:53 am 09:53 Cloudy with Rain 65 18.3 64 17.8 97 97 SSE 10 17 29.90 1013 4 6 0.25 6.35
10:07 am 10:07 Mostly Cloudy with Light Rain 66 18.9 64 17.8 93 93 S 14 22 29.91 1013 4 6 0.02 0.51
10:53 am 10:53 Partly Cloudy 71 21.7 66 18.9 84 84 SSW 5 7 29.88 1012 10 16 0.02 0.51
11:53 am 11:53 Mostly Sunny 74 23.3 66 18.9 76 76 S 10 17 29.87 1012 10 16 N/A
12:53 pm 12:53 Mostly Cloudy 74 23.3 64 17.8 71 71 SSW 16 26 29.90 1013 10 16 N/A
1:53 pm 13:53 Partly Cloudy 74 23.3 66 18.9 76 76 SSW 7 11 29.89 1012 10 16 N/A
2:53 pm 14:53 Sunny 76 24.4 66 18.9 72 72 WSW 13 20 29.86 1011 10 16 N/A
3:53 pm 15:53 Partly Cloudy 78 25.6 67 19.4 69 69 WSW 13 20 29.85 1011 10 16 N/A
4:53 pm 16:53 Sunny 80 26.7 68 20 67 67 WSW 12 19 29.84 1010 10 16 N/A
5:53 pm 17:53 Partly Cloudy 82 27.8 69 20.6 65 65 WSW 15 24 29.81 1010 10 16 N/A
6:53 pm 18:53 Mostly Cloudy 82 27.8 70 21.1 67 67 SW 8 13 29.82 1010 10 16 N/A
7:53 pm 19:53 Mostly Cloudy 81 27.2 69 20.6 67 67 WSW 10 17 29.83 1010 10 16 N/A
8:53 pm 20:53 Partly Cloudy 76 24.4 70 21.1 82 82 SSW 5 7 29.82 1010 10 16 N/A
9:53 pm 21:53 Clear 74 23.3 70 21.1 88 88 N N/A 29.82 1010 9 14 N/A
10:53 pm 22:53 Mostly Cloudy 73 22.8 70 21.1 90 90 N N/A 29.83 1010 7 11 N/A
11:53 pm 23:53 Mostly Cloudy with Mist and Fog 71 21.7 69 20.6 94 94 N N/A 29.83 1010 4 6 N/A

Powered by AerisWeather